Flag for Netherlands Weather past 2 weeks in Zoetermeer, Netherlands

Now
41 °F

Passing clouds.


Feels Like: 32 °F
Forecast: 36 / 40 °F
Wind: 21 mph from West

Location: Rotterdam Zestienhoven Airport

Current Time: Jan 28, 2015 at 10:03:30 PM

Latest Report: Jan 28, 2015 at 9:25 PM


Visibility: N/A

Pressure: 29.45 "Hg

Humidity: 61%

Dew point: 28 °F

Location of ZoetermeerLocation

Historic Weather in Zoetermeer — Graph

°F

Zoetermeer temperature yesterday

Maximum temperature yesterday: 46 °F (at 12:25 PM)
Minimum temperature yesterday: 36 °F (at 3:25 AM)
Average temperature yesterday: 41 °F

Past Weeks' High & Low Weather Summary

 TemperatureHumidityPressure
High50 °F (Jan 15, 7:25 AM)100% (Jan 18, 6:25 PM)30.42 "Hg (Jan 18, 6:25 PM)
Low23 °F (Jan 23, 7:25 AM)61% (Jan 17, 3:25 PM)29.30 "Hg (Jan 15, 8:25 AM)
Average38 °F86%29.93 "Hg
* Reported Jan 13 8:25 PM — Jan 28 8:55 PM, Zoetermeer, Weather by CustomWeather, © 2014

Note: Actual official high and low records may vary slightly from our data, if they occured in-between our weather recording intervals... More about our weather records

Advertising

Zoetermeer weather history for previous 24 hours

 ConditionsComfort  
Time TempWeatherWind HumidityBarometerVisibility
8:55 PM
Jan 28
41 °FPassing clouds.22 mph66%29.45 "HgN/A
8:25 PM41 °FPartly cloudy.25 mph66%29.45 "HgN/A
7:55 PM41 °FPartly cloudy.23 mph66%29.45 "HgN/A
7:25 PM41 °FPartly cloudy.22 mph66%29.45 "HgN/A
6:55 PM41 °FPassing clouds.21 mph70%29.45 "HgN/A
6:25 PM41 °FPartly cloudy.20 mph70%29.42 "HgN/A
5:55 PM41 °FClear.26 mph70%29.42 "HgN/A
5:25 PM41 °FPassing clouds.20 mph81%29.42 "HgN/A
4:55 PM39 °FPartly sunny.13 mph87%29.42 "HgN/A
4:25 PM39 °FSprinkles. Partly sunny.28 mph87%29.42 "Hg4 mi
3:55 PM37 °FRain. Mostly cloudy.22 mph100%29.39 "Hg2 mi
3:25 PM45 °FLight rain. Broken clouds.24 mph93%29.36 "HgN/A
2:55 PM45 °FSprinkles. Cloudy.28 mph93%29.39 "Hg2 mi
2:25 PM45 °FSprinkles. Broken clouds.26 mph87%29.42 "Hg3 mi
1:55 PM43 °FSprinkles. Cloudy.26 mph93%29.45 "Hg2 mi
1:25 PM43 °FLight rain. More clouds than sun.26 mph93%29.47 "Hg6 mi
12:55 PM45 °FDrizzle. Overcast.28 mph87%29.50 "HgN/A
12:25 PM45 °FOvercast.25 mph87%29.56 "HgN/A
11:55 AM45 °FOvercast.25 mph87%29.59 "HgN/A
11:25 AM43 °FMostly cloudy.24 mph93%29.62 "HgN/A
10:55 AM43 °FLow clouds.23 mph93%29.65 "Hg4 mi
10:25 AM43 °FDrizzle. Mostly cloudy.21 mph93%29.68 "Hg2 mi
9:55 AM43 °FLight rain. Mostly cloudy.20 mph93%29.74 "Hg1 mi
9:25 AM43 °FLight rain. Mostly cloudy.20 mph93%29.74 "Hg1 mi
8:55 AM43 °FBroken clouds.17 mph87%29.77 "HgN/A
8:25 AM43 °FPartly cloudy.18 mph87%29.80 "HgN/A
7:55 AM43 °FMostly cloudy.21 mph87%29.83 "HgN/A
7:25 AM43 °FPassing clouds.17 mph87%29.86 "HgN/A
6:55 AM43 °FMostly cloudy.17 mph87%29.86 "HgN/A
6:25 AM43 °FPartly cloudy.18 mph87%29.89 "HgN/A
5:55 AM43 °FPartly cloudy.15 mph87%29.92 "HgN/A
5:25 AM43 °FMostly cloudy.15 mph87%29.92 "HgN/A
4:55 AM43 °FPartly cloudy.15 mph87%29.92 "HgN/A
4:25 AM43 °FMostly cloudy.18 mph87%29.98 "HgN/A
3:55 AM43 °FLow clouds.15 mph87%29.98 "Hg6 mi
3:25 AM43 °FPartly cloudy.12 mph87%29.98 "Hg5 mi
2:55 AM43 °FPassing clouds.14 mph87%30.01 "Hg5 mi
2:25 AM43 °FMostly cloudy.13 mph87%30.04 "Hg6 mi
1:55 AM43 °FOvercast.13 mph87%30.07 "HgN/A
1:25 AM43 °FMostly cloudy.13 mph87%30.07 "HgN/A
12:55 AM43 °FOvercast.12 mph87%30.09 "HgN/A
12:25 AM43 °FMostly cloudy.8 mph93%30.12 "HgN/A
11:55 PM
Jan 27
43 °FMostly cloudy.12 mph93%30.12 "HgN/A
11:25 PM43 °FOvercast.12 mph87%30.15 "HgN/A
10:55 PM43 °FMostly cloudy.8 mph93%30.15 "Hg6 mi
Weather by CustomWeather, © 2014

See weather overviewHow to use our weather pages